Previsão horária em Estocolmo

Hoje, 24 Julho, Sábado

Tempo Temperatura Precipitação Vento Pressão Humidade
00:00 +14°C° 0 mm 2 m/s 762 mmHg 83%
01:00 +14°C° 0 mm 2 m/s 762 mmHg 84%
02:00 +14°C° 0 mm 2 m/s 761 mmHg 83%
03:00 +14°C° 0 mm 2 m/s 761 mmHg 83%
04:00 +13°C° 0 mm 3 m/s 761 mmHg 82%
05:00 +16°C° 0 mm 2 m/s 761 mmHg 72%
06:00 +17°C° 0 mm 2 m/s 761 mmHg 62%
07:00 +19°C° 0 mm 2 m/s 761 mmHg 51%
08:00 +21°C° 0 mm 2 m/s 761 mmHg 47%
09:00 +23°C° 0 mm 2 m/s 761 mmHg 43%
10:00 +24°C° 0 mm 2 m/s 761 mmHg 39%
11:00 +25°C° 0 mm 2 m/s 761 mmHg 37%
12:00 +26°C° 0 mm 2 m/s 761 mmHg 36%
13:00 +27°C° 0 mm 2 m/s 761 mmHg 35%
14:00 +26°C° 0 mm 2 m/s 761 mmHg 36%
15:00 +26°C° 0 mm 2 m/s 761 mmHg 38%
16:00 +26°C° 0 mm 3 m/s 761 mmHg 39%
17:00 +25°C° 0 mm 3 m/s 761 mmHg 45%
18:00 +24°C° 0 mm 3 m/s 761 mmHg 52%
19:00 +22°C° 0 mm 3 m/s 761 mmHg 58%
20:00 +20°C° 0 mm 3 m/s 761 mmHg 63%
21:00 +19°C° 0 mm 3 m/s 761 mmHg 69%
22:00 +17°C° 0 mm 3 m/s 761 mmHg 74%
23:00 +17°C° 0 mm 3 m/s 761 mmHg 74%

Amanhã, 25 Julho, Domingo

Tempo Temperatura Precipitação Vento Pressão Humidade
00:00 +17°C° 0 mm 3 m/s 761 mmHg 74%
01:00 +16°C° 0 mm 2 m/s 761 mmHg 74%
02:00 +16°C° 0 mm 2 m/s 761 mmHg 73%
03:00 +16°C° 0 mm 2 m/s 762 mmHg 71%
04:00 +16°C° 0 mm 2 m/s 762 mmHg 70%
05:00 +18°C° 0 mm 2 m/s 762 mmHg 64%
06:00 +20°C° 0 mm 2 m/s 762 mmHg 57%
07:00 +23°C° 0 mm 1 m/s 762 mmHg 50%
08:00 +24°C° 0 mm 2 m/s 762 mmHg 47%
09:00 +26°C° 0 mm 2 m/s 762 mmHg 43%
10:00 +27°C° 0 mm 2 m/s 762 mmHg 39%
11:00 +28°C° 0 mm 3 m/s 762 mmHg 38%
12:00 +28°C° 0 mm 3 m/s 762 mmHg 37%
13:00 +29°C° 0 mm 4 m/s 762 mmHg 36%
14:00 +28°C° 0 mm 4 m/s 762 mmHg 38%
15:00 +28°C° 0 mm 4 m/s 762 mmHg 39%
16:00 +27°C° 0 mm 4 m/s 762 mmHg 40%
17:00 +26°C° 0 mm 4 m/s 762 mmHg 45%
18:00 +25°C° 0 mm 3 m/s 762 mmHg 50%
19:00 +22°C° 0 mm 3 m/s 762 mmHg 54%
20:00 +21°C° 0 mm 3 m/s 762 mmHg 63%
21:00 +19°C° 0 mm 3 m/s 762 mmHg 71%
22:00 +18°C° 0 mm 2 m/s 763 mmHg 79%
23:00 +17°C° 0 mm 2 m/s 763 mmHg 81%

Depois de amanhã, 26 Julho, Segunda-feira

Tempo Temperatura Precipitação Vento Pressão Humidade
00:00 +17°C° 0 mm 2 m/s 763 mmHg 83%
01:00 +17°C° 0 mm 2 m/s 763 mmHg 85%
02:00 +17°C° 0 mm 2 m/s 763 mmHg 87%
03:00 +17°C° 0 mm 2 m/s 763 mmHg 88%
04:00 +18°C° 0 mm 1 m/s 763 mmHg 89%
05:00 +18°C° 0 mm 2 m/s 763 mmHg 79%
06:00 +20°C° 0 mm 2 m/s 763 mmHg 70%
07:00 +22°C° 0 mm 3 m/s 763 mmHg 60%
08:00 +24°C° 0 mm 3 m/s 763 mmHg 56%
09:00 +25°C° 0 mm 4 m/s 763 mmHg 52%
10:00 +26°C° 0 mm 4 m/s 763 mmHg 49%
11:00 +27°C° 0 mm 4 m/s 763 mmHg 48%
12:00 +27°C° 0 mm 4 m/s 763 mmHg 48%
13:00 +28°C° 0 mm 4 m/s 762 mmHg 47%
14:00 +27°C° 0 mm 4 m/s 762 mmHg 48%
15:00 +27°C° 0 mm 4 m/s 762 mmHg 48%
16:00 +27°C° 0 mm 4 m/s 762 mmHg 48%
17:00 +26°C° 0 mm 4 m/s 762 mmHg 53%
18:00 +25°C° 0 mm 4 m/s 762 mmHg 59%
19:00 +24°C° 0 mm 3 m/s 762 mmHg 64%
20:00 +22°C° 0 mm 3 m/s 762 mmHg 69%
21:00 +21°C° 0 mm 3 m/s 762 mmHg 74%
22:00 +20°C° 0 mm 3 m/s 762 mmHg 80%
23:00 +19°C° 0 mm 3 m/s 761 mmHg 80%

27 Julho, Terça-feira

Tempo Temperatura Precipitação Vento Pressão Humidade
00:00 +19°C° 0 mm 3 m/s 761 mmHg 79%
01:00 +19°C° 0 mm 3 m/s 761 mmHg 79%
02:00 +20°C° 0 mm 3 m/s 761 mmHg 80%
03:00 +20°C° 0 mm 4 m/s 760 mmHg 81%
04:00 +20°C° 0 mm 4 m/s 760 mmHg 82%
05:00 +22°C° 0 mm 4 m/s 760 mmHg 76%
06:00 +23°C° 0 mm 4 m/s 760 mmHg 70%
07:00 +26°C° 0 mm 4 m/s 759 mmHg 64%
08:00 +26°C° 0.1 mm 5 m/s 759 mmHg 60%
09:00 +27°C° 0.1 mm 5 m/s 759 mmHg 57%
10:00 +27°C° 0.1 mm 6 m/s 759 mmHg 54%
11:00 +25°C° 1.1 mm 5 m/s 759 mmHg 66%
12:00 +22°C° 1.1 mm 4 m/s 759 mmHg 79%
13:00 +20°C° 1.1 mm 3 m/s 758 mmHg 92%
14:00 +20°C° 0.9 mm 3 m/s 758 mmHg 92%
15:00 +20°C° 0.9 mm 3 m/s 758 mmHg 92%
16:00 +20°C° 0.9 mm 3 m/s 757 mmHg 93%
17:00 +20°C° 1.5 mm 3 m/s 757 mmHg 94%
18:00 +20°C° 1.5 mm 3 m/s 756 mmHg 96%
19:00 +19°C° 1.5 mm 3 m/s 756 mmHg 97%
20:00 +19°C° 0.5 mm 3 m/s 756 mmHg 97%
21:00 +19°C° 0.5 mm 3 m/s 756 mmHg 97%
22:00 +19°C° 0.5 mm 3 m/s 756 mmHg 97%
23:00 +19°C° 0 mm 2 m/s 756 mmHg 97%

28 Julho, Quarta-feira

Tempo Temperatura Precipitação Vento Pressão Humidade
00:00 +18°C° 0 mm 2 m/s 756 mmHg 98%
01:00 +18°C° 0 mm 2 m/s 756 mmHg 98%
02:00 +18°C° 0 mm 2 m/s 756 mmHg 97%
03:00 +19°C° 0 mm 1 m/s 755 mmHg 97%
04:00 +19°C° 0 mm 1 m/s 755 mmHg 97%
05:00 +20°C° 0 mm 1 m/s 755 mmHg 94%
06:00 +20°C° 0 mm 2 m/s 755 mmHg 91%
07:00 +21°C° 0 mm 2 m/s 755 mmHg 88%
08:00 +23°C° 0 mm 2 m/s 755 mmHg 79%
09:00 +24°C° 0 mm 2 m/s 755 mmHg 70%
10:00 +25°C° 0 mm 2 m/s 755 mmHg 61%
11:00 +26°C° 0 mm 2 m/s 755 mmHg 59%
12:00 +26°C° 0 mm 3 m/s 755 mmHg 56%
13:00 +26°C° 0 mm 3 m/s 755 mmHg 54%
14:00 +26°C° 0 mm 3 m/s 755 mmHg 55%
15:00 +26°C° 0 mm 3 m/s 755 mmHg 55%
16:00 +26°C° 0 mm 3 m/s 754 mmHg 56%
17:00 +25°C° 0 mm 3 m/s 754 mmHg 60%
18:00 +24°C° 0 mm 3 m/s 754 mmHg 64%
19:00 +22°C° 0 mm 3 m/s 754 mmHg 68%
20:00 +21°C° 0 mm 3 m/s 754 mmHg 73%
21:00 +20°C° 0 mm 3 m/s 753 mmHg 78%
22:00 +19°C° 0 mm 3 m/s 753 mmHg 83%
23:00 +19°C° 0.3 mm 3 m/s 753 mmHg 85%

29 Julho, Quinta-feira

Tempo Temperatura Precipitação Vento Pressão Humidade
00:00 +19°C° 0.3 mm 4 m/s 752 mmHg 87%
01:00 +19°C° 0.3 mm 4 m/s 751 mmHg 88%
02:00 +18°C° 2.1 mm 3 m/s 751 mmHg 91%
03:00 +18°C° 2.1 mm 3 m/s 751 mmHg 93%
04:00 +17°C° 2.1 mm 2 m/s 751 mmHg 95%
05:00 +18°C° 0.3 mm 3 m/s 752 mmHg 94%
06:00 +17°C° 0.3 mm 5 m/s 752 mmHg 92%
07:00 +17°C° 0.3 mm 6 m/s 752 mmHg 91%
08:00 +19°C° 0.1 mm 6 m/s 752 mmHg 85%
09:00 +19°C° 0.1 mm 6 m/s 752 mmHg 80%
10:00 +20°C° 0.1 mm 7 m/s 752 mmHg 74%
11:00 +22°C° 0 mm 6 m/s 753 mmHg 63%
12:00 +23°C° 0 mm 6 m/s 753 mmHg 53%
13:00 +24°C° 0 mm 6 m/s 753 mmHg 42%
14:00 +24°C° 0 mm 6 m/s 753 mmHg 44%
15:00 +24°C° 0 mm 6 m/s 753 mmHg 46%
16:00 +24°C° 0 mm 7 m/s 753 mmHg 48%
17:00 +23°C° 0 mm 6 m/s 753 mmHg 50%
18:00 +22°C° 0 mm 5 m/s 753 mmHg 53%
19:00 +22°C° 0 mm 4 m/s 753 mmHg 56%
20:00 +20°C° 0 mm 4 m/s 753 mmHg 62%
21:00 +19°C° 0 mm 3 m/s 752 mmHg 69%
22:00 +18°C° 0 mm 3 m/s 752 mmHg 75%
23:00 +17°C° 0 mm 3 m/s 752 mmHg 76%
Mostrar mais

Necessitamos do seu Consentimento

A Meteoprog e os seus Fornecedores de Serviços podem armazenar e aceder a dados pessoais como cookies, identificadores do dispositivo ou outras tecnologias semelhantes existentes no seu dispositivo e processar estes dados para personalizar conteúdos e anúncios, assim como funcionalidades nas redes sociais e análise de tráfego.

  • Armazenar e/ou aceder a informações no seu dispositivo

    Os cookies, identificadores do dispositivo ou outras informações podem ser armazenados ou acedidos no seu dispositivo, para os fins acima indicados.

  • Anúncios e conteúdos personalizados, medição de anúncios e conteúdos, dados sobre o público-alvo e desenvolvimento de produtos

    Os anúncios e os conteúdos podem ser personalizados com base num perfil. Podem ser adicionados dados adicionais para uma maior personalização dos anúncios e dos conteúdos. A eficácia dos anúncios e dos conteúdos pode ser medida. Podem ser obtidas informações sobre o público que visualizou os anúncios e os conteúdos. Estes dados podem ser usados para desenvolver ou melhorar sistemas, softwares ou a experiência do utilizador.

Ao clicar em "Eu concordo”, permitirá o uso de cookies, identificadores do dispositivo e web beacons mencionados ou outras tecnologias semelhantes. As configurações do navegador do seu dispositivo podem ser alteradas.

Para certos fins, podem ser invocados interesses legítimos ao invés de consentimento. Pode ler mais informação sobre este assunto na nossa Política de Privacidade e Cookies.